Showing default

METEOR M2-2, 44387

Orbit data source: Space-Track

METEOR M2-2, 44387 is a Commonwealth of Independent States-origin payload satellite in SSO that was launched on Fri, 05 Jul 2019 UTC via a SOYUZ-2-1B launch vehicle from the Vostochny Cosmodrome (VOSTO). Payload-class satellites include a variety of spacecraft equipped with specific instruments for various scientific and technological missions. These include communications satellites like Starlink; space stations such as the ISS; scientific satellites like the Hubble; Earth observation satellites from companies like Planet Labs, Umbra, and HawkEye 360; GPS; miniature CubeSats for education and research; and military/defense satellites.

Loading next visibility...
Identifier
44387, 2019-038A
Orbit
SSO
Last TLE update
4 hours ago
Origin
Manufacturer
VNIIEM
Mission
Partially operational Civil Weather
Bus & Motor
RESURS-O, Unknown motor
Mass
2,879 kg wet, ~2,600 kg dry
Launch date (UTC)
2019-07-05 (6 years ago)
Launch vehicle
SOYUZ-2-1B
Launch site
Vostochny Cosmodrome (VOSTO)
Object type
Payload
Rocket body
Debris
Shape & HBR
Cyl + 2 Pan, 14 m
Radar Cross Section
26.744 m², Large (>1 m²)

Expand to show TLE details & history

TLE from 4 hours ago
0 METEOR M2-2
1 44387U 19038A   25129.23464081  .00000166  00000-0  91836-4 0  9998
2 44387  98.8727 106.6108 0002374  95.4416 264.7033 14.24199669303794
Epoch: 2025-05-09T05:37Z
Definitive object data (Epoch: 2025-05-09T05:37:52.965Z)
Latitude
-0.00007°
Longitude
154.84642°
Altitude
814.258 km
Speed
7.446 km/s
True Right ascension
07h 06m 26s
True Declination
0° 00' 00"
Sunlit
Object was in daylight at TLE epoch
Visualization TLE readout
Latitude
42.5451°
Longitude
146.80338°
Altitude
816.352 km
Speed
7.45 km/s
Apparent Right ascension
05h 59m 23s
Apparent Declination
4° 22' 40"
Sunlit
Object is in daylight
Visualization observer readout
Local Sidereal Time
17:21:34
Azimuth
346.641° N
Elevation
-44.86°
Doppler factor
1
Orbital elements
Apogee altitude
810.052 km
Perigee altitude
806.64 km
Semi-major axis
7,186.483 km
Eccentricity
0.0002374
Inclination
98.8727°
RAAN
106.6108°
Arg. of periapsis
95.4416°
True anomaly
264.67621°
Mean anomaly
264.7033°
Eccentric anomaly
264.68976°
Mean motion
3.56261 °/min
BSTAR
0.000091836
Orbital period
101.05 mins
Loading maneuver chart data...
Loading SW <> Apogee altitude chart data...

METEOR M2-2 Visibility forecast

Observer location: undefined°, undefined°

Span
Click to sort rows by Start time (UTC) header in descending order
Start Az.
Max El. time (UTC)
Max El. Az.
Max El.
End time (UTC)
End Az.
9 mins2025-05-09 11:16:17.434Z17.462° NNE2025-05-09 11:20:17.434Z60.844° ENE43.908°2025-05-09 11:25:17.434Z189.705° SSW
4 mins2025-05-09 12:58:17.434Z318.727° NNW2025-05-09 13:00:17.434Z294.236° NW13.382°2025-05-09 13:02:17.434Z271.549° WNW
4 mins2025-05-09 21:00:17.434Z76.092° E2025-05-09 21:01:17.434Z63.097° ENE15.087°2025-05-09 21:04:17.434Z27.344° NE
8 mins2025-05-09 22:37:17.434Z177.88° S2025-05-09 22:40:17.434Z224.343° SW42.329°2025-05-09 22:45:17.434Z340.053° N
|